Theta_e
279 278 277 277 277 277 277 276 276 276 276 276 276 276 276 276 276 276 276 276 276 276 276 277 277 277 277 277 277 277 277 277 277 277 277 278 279 281 281 282 283 284
278 277 277 277 277 276 276 276 275 275 275 275 275 275 275 275 276 276 276 276 276 276 276 277 277 277 276 276 276 276 276 276 276 277 277 278 279 280 281 281 282 283
277 277 277 276 276 275 275 275 274 274 275 274 275 275 275 275 275 275 275 276 276 276 276 276 276 276 276 276 276 275 276 276 276 276 277 278 278 278 279 280 280 281
277 277 276 275 275 275 274 274 274 274 274 274 274 274 274 274 275 275 275 275 276 276 276 276 276 276 276 276 275 275 275 275 276 276 276 276 277 278 279 280 281 281
277 276 275 274 274 274 273 273 273 273 273 273 273 273 274 274 274 274 275 275 275 275 276 276 276 276 276 275 275 275 275 275 275 275 275 276 276 278 279 280 280 281
276 275 274 274 273 273 273 272 272 272 272 272 273 273 273 273 274 274 274 274 275 275 275 275 275 275 275 275 275 274 275 275 275 275 275 276 276 277 278 278 278 278
275 274 274 273 273 272 272 272 272 272 272 272 272 272 272 272 273 273 273 274 274 274 275 275 274 274 274 274 274 274 274 274 274 275 275 275 276 276 276 276 276 277
274 273 273 273 272 272 271 271 271 271 271 271 271 271 272 272 272 273 273 273 274 274 274 274 273 273 273 274 274 273 273 273 274 274 275 275 275 276 275 275 276 278
274 273 273 272 271 271 271 271 271 270 270 271 271 271 271 271 272 272 272 273 273 273 273 273 272 272 272 273 273 273 272 273 273 274 274 275 275 275 275 274 276 277
274 273 272 271 271 270 270 270 270 270 270 270 270 270 270 271 271 271 271 272 272 272 272 271 271 271 271 272 272 272 272 272 273 273 274 274 274 274 274 274 275 275
273 272 271 270 270 270 270 270 270 270 270 270 270 270 270 270 269 270 270 270 270 270 270 270 270 270 270 270 271 271 271 271 272 272 273 273 273 273 273 273 274 274
271 271 270 270 269 269 269 269 269 269 269 269 269 268 268 268 268 268 268 268 268 268 268 268 268 268 268 269 269 270 270 271 271 272 272 272 273 273 273 273 273 273
270 270 269 269 269 269 269 269 269 268 268 267 267 266 266 266 266 266 266 267 267 267 267 267 267 267 268 268 268 269 269 270 270 271 271 272 272 272 272 273 273 273
269 269 269 269 269 268 268 268 267 267 266 265 265 265 264 265 265 265 265 265 265 265 266 266 266 267 267 267 268 268 269 270 270 271 271 271 272 272 272 272 273 273
269 268 268 268 268 267 267 266 266 265 264 264 263 263 263 263 263 264 264 264 264 265 265 265 266 266 267 267 268 269 270 270 271 271 271 271 272 272 272 272 272 273
268 268 268 267 267 266 266 265 264 264 263 262 262 262 263 263 263 263 263 264 264 264 265 265 266 266 267 268 269 270 271 272 272 272 272 272 272 272 272 273 273 273
267 267 266 266 266 265 264 264 263 262 262 262 262 262 262 263 263 263 264 264 264 265 265 266 266 267 268 269 270 272 273 273 273 274 274 274 274 274 274 274 274 275
266 266 265 265 265 264 263 262 262 261 261 262 262 262 262 263 263 264 264 264 265 265 266 266 267 268 269 270 271 272 273 274 274 274 275 275 275 275 275 275 275 276
265 264 264 264 264 263 262 261 261 261 261 261 262 262 263 263 264 264 264 265 265 265 266 266 267 268 269 270 272 273 274 274 275 275 275 275 275 276 276 276 276 276
264 264 264 263 263 262 261 261 261 261 261 262 262 262 263 263 264 264 264 264 265 265 266 266 266 267 269 270 272 273 274 275 276 276 276 276 276 276 276 276 276 276
263 263 263 262 262 261 261 260 261 261 261 262 262 263 263 264 264 264 264 264 264 265 265 265 266 267 268 270 272 273 274 275 276 277 277 277 277 277 277 277 277 277
263 262 262 261 261 260 260 260 260 261 261 262 262 263 263 263 263 263 264 264 264 264 264 265 265 267 268 270 271 273 274 276 277 277 278 278 278 278 278 277 277 277
263 262 261 261 260 260 260 260 260 261 261 262 262 263 263 263 263 263 263 263 264 264 264 265 265 267 268 270 271 273 274 275 276 277 278 278 278 278 278 278 277 277
263 262 260 260 260 260 260 260 260 261 261 262 262 262 262 263 263 263 263 263 264 264 264 265 266 267 268 270 271 273 274 275 276 277 277 278 278 278 278 278 278 278
264 262 260 259 259 260 260 260 261 261 262 262 262 262 262 263 263 263 263 263 264 264 265 266 267 267 268 269 271 273 274 275 276 276 276 277 277 278 279 278 278 279
264 262 260 259 259 260 260 260 261 261 261 262 262 262 262 262 263 263 263 264 264 265 266 266 267 267 268 270 272 273 274 275 275 275 275 276 277 278 279 279 279 279
Wind_Speed
17 18 19 21 22 24 26 27 29 30 32 33 34 37 38 38 37 35 35 34 33 33 33 32 32 32 33 31 30 30 30 31 32 32 32 34 35 35 36 36 36 37
17 18 19 21 24 25 26 28 29 31 33 34 34 36 37 38 37 35 35 35 34 34 33 33 33 33 33 32 31 32 32 32 32 31 32 33 33 33 35 36 37 38
18 19 20 22 24 26 27 28 29 30 32 33 34 35 36 36 37 36 35 35 34 35 33 33 34 34 33 33 33 33 33 33 32 31 32 33 32 34 38 40 41 40
18 20 21 23 24 26 27 28 29 30 30 32 33 34 35 35 36 36 36 35 34 35 34 34 34 34 34 34 33 33 34 35 34 32 33 33 33 35 36 36 35 35
19 20 22 23 24 26 27 28 30 30 30 32 33 33 34 34 35 35 35 35 34 35 35 35 35 34 34 34 33 33 34 35 34 32 33 33 33 31 29 27 28 29
20 21 22 24 25 26 27 28 29 30 30 31 32 32 33 33 34 34 35 35 34 35 35 35 34 34 34 34 33 33 33 33 33 31 32 33 32 31 29 29 31 32
21 22 23 25 26 27 28 28 29 29 30 31 32 32 32 33 34 34 34 34 34 35 34 34 34 34 34 34 33 33 32 31 32 31 32 33 32 33 31 30 33 35
22 24 25 26 27 27 28 29 29 30 30 31 32 32 32 32 33 33 32 33 33 33 32 32 34 34 33 32 32 33 32 31 30 30 32 32 31 33 31 29 31 32
24 25 26 26 27 27 28 28 29 30 31 31 32 32 31 30 30 30 31 31 31 31 31 31 32 32 31 31 31 31 31 31 31 30 32 32 32 32 31 30 31 30
25 26 26 26 26 27 28 29 30 30 30 30 31 31 29 28 28 28 30 30 30 30 30 31 31 31 31 31 30 31 31 31 31 31 32 32 33 33 31 30 31 31
25 26 26 26 26 27 28 29 29 30 29 29 29 28 27 28 28 28 29 29 30 30 31 32 31 31 32 32 31 31 32 31 31 32 32 33 33 33 32 31 32 32
25 25 25 26 27 28 28 29 29 29 29 29 28 27 27 28 28 28 28 29 30 31 31 33 33 32 33 33 33 32 31 32 32 32 33 33 33 33 32 32 32 33
24 25 25 26 27 28 28 28 28 28 29 29 28 27 27 27 28 28 28 29 30 31 32 33 34 33 33 33 33 32 32 31 31 31 32 32 32 32 32 33 33 33
24 24 25 26 26 27 28 28 29 29 29 29 27 26 26 26 27 29 30 31 31 32 33 34 34 34 33 33 32 32 32 31 31 31 31 31 31 32 32 32 32 33
23 24 25 25 26 27 27 28 29 30 29 29 28 26 26 27 28 30 31 33 33 33 33 33 33 33 32 31 31 31 31 31 30 30 30 31 31 32 33 33 33 33
23 23 24 25 26 27 28 29 30 31 31 31 30 29 29 30 31 31 31 33 34 34 33 32 32 32 31 31 32 33 33 32 30 28 28 28 29 30 31 31 32 33
21 22 23 25 26 27 29 30 31 32 31 31 31 31 31 30 31 33 34 33 32 32 32 32 32 32 32 33 34 35 35 34 32 31 28 27 27 28 29 29 29 30
20 21 23 25 26 28 30 31 32 31 31 32 31 31 31 31 33 34 33 29 29 31 32 32 33 33 33 34 35 35 35 34 33 32 30 28 28 28 30 30 29 30
19 21 23 25 27 29 30 30 31 30 30 31 31 32 33 32 31 29 27 26 28 31 32 32 33 34 34 35 36 36 37 36 33 30 28 30 31 31 32 32 30 30
18 21 23 25 27 28 29 29 30 30 30 30 31 31 31 28 27 27 28 28 29 30 31 33 34 35 35 36 37 37 37 36 34 31 29 30 32 32 31 31 31 32
20 22 24 26 27 28 29 28 28 29 29 29 29 28 26 26 27 29 29 29 28 30 32 34 35 36 37 38 38 37 36 35 33 32 29 29 29 28 29 30 30 31
21 22 24 26 27 28 28 28 28 29 29 29 27 26 25 26 27 27 28 30 31 33 33 34 37 38 37 38 38 37 35 33 31 29 29 31 30 28 30 31 30 29
21 22 23 25 26 27 27 28 28 28 28 27 26 27 27 28 28 28 29 31 33 34 34 36 38 39 38 38 38 36 33 32 29 27 29 32 33 33 35 34 31 30
20 21 22 23 25 26 27 27 28 28 27 26 27 28 28 28 29 30 30 32 33 35 36 36 38 40 40 38 36 34 32 31 29 26 26 27 30 33 34 33 30 30
19 20 20 21 23 25 26 27 27 27 27 27 27 27 28 29 29 30 31 32 33 35 36 35 37 42 41 36 34 33 32 31 28 25 23 23 24 26 28 30 30 29
18 19 20 21 22 24 25 25 26 27 28 28 28 27 28 29 29 30 32 32 33 34 35 35 38 42 39 34 32 32 32 31 29 25 22 21 23 23 23 26 28 28
Wind_Direction
315 313 311 310 308 308 307 306 304 301 299 299 299 300 301 302 302 302 300 298 296 294 293 290 288 288 288 286 284 281 278 277 276 275 274 271 268 268 272 274 274 274
315 314 312 312 311 309 307 305 302 300 299 300 300 301 301 302 302 301 299 297 296 293 291 289 287 286 286 284 284 283 279 277 275 275 274 271 269 269 270 271 271 273
316 316 315 314 311 309 307 304 302 300 301 301 301 301 301 301 301 299 298 296 295 293 291 289 287 285 284 284 284 282 279 275 273 274 274 272 273 273 271 270 269 269
317 317 317 314 309 307 305 304 303 303 303 302 302 303 302 301 300 299 297 295 294 292 291 290 288 286 285 284 283 281 277 274 272 272 272 273 273 272 270 268 267 267
318 318 316 312 308 307 306 305 305 306 305 304 303 304 303 301 300 298 297 296 294 292 291 290 289 287 285 284 282 280 277 274 272 270 270 270 270 272 273 273 274 274
320 318 314 311 310 309 308 307 308 308 307 306 305 304 302 301 299 297 296 295 294 293 291 289 289 288 287 285 281 278 276 274 273 271 269 269 270 271 274 276 277 277
319 316 314 314 314 313 311 310 310 309 308 307 305 303 303 301 300 297 296 295 293 292 289 287 288 288 288 285 280 277 275 274 274 272 269 269 270 270 272 275 275 272
317 317 318 318 317 315 313 312 312 311 310 308 305 304 304 302 300 299 297 295 292 290 287 287 288 288 287 284 280 277 275 275 274 272 270 270 270 270 271 274 274 270
321 322 322 319 317 315 314 313 313 312 312 309 306 306 306 302 299 298 296 294 292 289 287 288 289 288 286 284 279 277 277 276 274 271 271 270 269 270 270 272 273 273
325 324 321 318 316 314 314 314 314 313 311 310 308 306 304 301 299 298 296 293 292 290 289 289 289 287 287 284 279 277 277 277 275 272 271 270 268 268 270 270 270 271
325 323 320 317 316 315 315 315 314 312 311 310 309 305 303 303 301 300 298 294 292 291 290 290 288 287 286 284 279 277 277 276 276 274 272 270 269 268 268 269 268 270
323 321 317 316 317 316 316 314 313 312 311 311 310 307 305 304 303 300 298 295 293 292 290 289 288 287 284 282 279 277 277 276 274 273 272 270 269 269 269 268 267 269
320 318 316 318 318 316 315 314 313 313 313 313 312 310 307 306 305 301 298 296 294 292 291 289 288 286 283 280 278 277 276 275 273 271 271 270 269 269 269 268 268 268
317 317 318 319 317 315 315 315 316 317 317 316 315 312 309 306 304 302 299 297 294 291 290 289 287 286 283 280 278 276 273 272 271 269 269 270 270 270 269 268 269 269
317 319 320 318 317 317 319 320 321 321 320 319 317 314 309 305 303 301 298 297 294 291 290 289 287 284 283 280 278 276 273 270 268 264 263 264 266 267 266 264 265 267
320 319 318 317 319 322 325 326 325 324 323 321 319 315 311 308 305 302 298 295 293 292 290 289 287 284 283 282 280 278 275 272 270 265 259 258 260 262 262 259 258 261
319 316 317 321 326 329 329 328 327 325 324 321 319 317 314 312 309 305 302 296 291 291 291 290 288 286 285 286 284 281 279 275 273 271 267 262 260 260 263 263 262 264
315 316 323 328 332 332 330 329 327 325 324 321 320 319 317 314 311 307 303 297 293 294 295 293 292 290 289 289 287 284 282 279 276 273 271 268 264 261 263 265 267 269
316 324 331 334 334 333 331 329 327 324 324 322 320 319 318 314 311 309 306 303 302 300 298 297 296 295 294 292 290 287 284 281 278 273 267 265 264 262 262 261 261 265
327 335 337 336 335 334 331 329 326 324 322 321 320 320 318 315 313 312 310 309 307 303 301 300 298 297 297 296 294 292 288 284 282 277 267 261 260 258 257 256 255 257
339 341 340 337 336 334 330 327 325 323 321 322 321 319 317 316 315 314 311 310 308 306 304 302 299 299 300 299 297 296 294 291 286 279 270 264 261 257 256 257 255 254
344 343 340 338 336 332 329 325 323 322 322 323 321 318 316 315 314 314 312 310 309 308 304 301 301 302 302 302 301 299 298 296 290 283 276 271 266 261 259 259 257 256
346 344 341 339 335 330 325 323 322 322 323 323 320 318 317 316 314 313 312 310 309 308 306 304 303 304 305 304 304 302 301 301 297 293 288 282 274 267 263 259 255 256
348 347 342 336 331 326 322 321 322 321 321 322 320 316 315 315 314 312 311 311 310 309 308 305 304 306 307 305 305 304 304 303 302 301 299 294 285 275 267 260 256 256
351 348 343 334 327 324 322 321 322 321 320 320 318 316 314 313 313 311 310 311 311 310 308 306 305 307 307 304 304 307 307 306 306 306 304 302 297 285 272 263 259 258
353 348 342 334 328 325 324 322 322 322 322 321 319 317 314 313 313 311 308 309 312 312 310 309 308 307 306 305 306 308 310 311 309 305 301 299 299 292 279 268 261 256